Weather History for KC75 - February, 2012

Change the Weather History Date:

Saturday, February 25, 2012

  Actual Average (KPIA) Record (KPIA)
Temperature  
Mean Temperature 24 °F 33 °F  
Max Temperature 29 °F 42 °F 70 °F (2000)
Min Temperature 19 °F 24 °F -9 °F (1967)
Degree Days  
Heating Degree Days 41 32  
Month to date heating degree days 901  
Since 1 July heating degree days 4422  
Cooling Degree Days 0 0  
Month to date cooling degree days 0  
Year to date cooling degree days 0  
Moisture  
Dew Point 16 °F    
Average Humidity 71    
Maximum Humidity 86    
Minimum Humidity 59    
Precipitation  
Precipitation 0.00 in 0.08 in 1.35 in (1899)
Month to date precipitation 1.56  
Year to date precipitation 3.34  
Snow  
Snow 0.00 in 0.20 in 5.70 in (1994)
Month to date snowfall 5.7  
Since 1 July snowfall 20.8  
Snow Depth -    
Sea Level Pressure  
Sea Level Pressure 30.21 in    
Wind  
Wind Speed 10 mph (West)    
Max Wind Speed 18 mph    
Max Gust Speed 26 mph    
Visibility 10 miles    
Events      
T = Trace of Precipitation, MM = Missing Value Source: NWS Daily Summary

Daily Weather History Graph

Daily Weather History Graph

Search for Another Location

Airport or City:

Trip Planner

Search our weather history database for the weather conditions in past years. The results will help you decide how hot, cold, wet, or windy it might be!

Date:

Astronomy

Feb. 25, 2012 Rise Set
Actual Time 6:38 AM CST 5:43 PM CST
Civil Twilight 6:10 AM CST 6:11 PM CST
Nautical Twilight 5:38 AM CST 6:43 PM CST
Astronomical Twilight 5:07 AM CST 7:14 PM CST
Moon 8:00 AM CST (2/25) 9:47 PM CST (2/25)
Length of Visible Light 12h 00m
Length of Day
11h 04m
Waxing Crescent, 14% of the Moon is Illuminated
Feb 25
Waxing Crescent
Feb 29
First Quarter
Mar 8
Full
Mar 14
Last Quarter
Mar 22
New

Hourly Weather History & Observations

Time (CST) Temp. Windchill Dew Point Humidity Pressure Visibility Wind Dir Wind Speed Gust Speed Precip Events Conditions
12:15 AM 25.7 °F 15.7 °F 19.4 °F 77% 30.05 in 10.0 mi WSW 10.4 mph 18.4 mph N/A   Clear
12:35 AM 25.7 °F 16.4 °F 19.6 °F 78% 30.05 in 10.0 mi WSW 9.2 mph 16.1 mph N/A   Clear
12:55 AM 25.5 °F 15.5 °F 19.9 °F 79% 30.06 in 10.0 mi WSW 10.4 mph 17.3 mph N/A   Mostly Cloudy
1:15 AM 25.7 °F 16.4 °F 20.1 °F 79% 30.06 in 10.0 mi WSW 9.2 mph 18.4 mph N/A   Overcast
1:35 AM 25.5 °F 16.2 °F 20.1 °F 80% 30.06 in 10.0 mi WSW 9.2 mph - N/A   Overcast
1:55 AM 25.5 °F 17.8 °F 20.1 °F 80% 30.06 in 10.0 mi WSW 6.9 mph - N/A   Overcast
2:15 AM 25.5 °F 16.9 °F 20.3 °F 81% 30.06 in 10.0 mi WSW 8.1 mph - N/A   Overcast
2:35 AM 24.8 °F 15.3 °F 21.2 °F 86% 30.07 in 10.0 mi West 9.2 mph - N/A   Overcast
3:15 AM 24.8 °F 17.9 °F 21.2 °F 86% 30.08 in 10.0 mi WSW 5.8 mph - N/A   Mostly Cloudy
3:35 AM 24.4 °F 14.2 °F 19.0 °F 80% 30.08 in 10.0 mi West 10.4 mph 20.7 mph N/A   Scattered Clouds
3:55 AM 23.7 °F 12.6 °F 16.2 °F 73% 30.09 in 10.0 mi West 11.5 mph 21.9 mph N/A   Mostly Cloudy
4:15 AM 22.6 °F 11.9 °F 16.0 °F 76% 30.11 in 10.0 mi West 10.4 mph - N/A   Scattered Clouds
4:35 AM 21.7 °F 10.2 °F 14.2 °F 73% 30.12 in 10.0 mi West 11.5 mph 24.2 mph N/A   Clear
4:55 AM 21.2 °F 9.5 °F 14.5 °F 75% 30.12 in 10.0 mi West 11.5 mph 18.4 mph N/A   Clear
5:15 AM 20.7 °F 7.6 °F 14.0 °F 75% 30.13 in 10.0 mi West 13.8 mph 20.7 mph N/A   Clear
5:35 AM 20.3 °F 9.0 °F 14.0 °F 77% 30.14 in 10.0 mi West 10.4 mph 17.3 mph N/A   Scattered Clouds
5:55 AM 20.3 °F 6.6 °F 13.3 °F 74% 30.15 in 10.0 mi West 15.0 mph 20.7 mph N/A   Clear
6:15 AM 19.4 °F 6.0 °F 12.2 °F 74% 30.16 in 10.0 mi West 13.8 mph 25.3 mph N/A   Clear
6:35 AM 20.1 °F 5.9 °F 12.6 °F 73% 30.18 in 10.0 mi West 16.1 mph 23.0 mph N/A   Scattered Clouds
6:55 AM 19.8 °F 5.4 °F 12.2 °F 72% 30.18 in 10.0 mi West 16.1 mph 25.3 mph N/A   Scattered Clouds
7:15 AM 19.9 °F 7.9 °F 12.0 °F 71% 30.19 in 10.0 mi West 11.5 mph 26.5 mph N/A   Clear
7:35 AM 20.3 °F 5.2 °F 12.4 °F 71% 30.20 in 10.0 mi West 18.4 mph 26.5 mph N/A   Clear
7:55 AM 20.8 °F 6.8 °F 12.7 °F 71% 30.21 in 10.0 mi West 16.1 mph 21.9 mph N/A   Clear
8:15 AM 21.2 °F 8.3 °F 12.9 °F 70% 30.23 in 10.0 mi West 13.8 mph 21.9 mph N/A   Clear
8:35 AM 21.6 °F 8.8 °F 12.6 °F 68% 30.23 in 10.0 mi West 13.8 mph 23.0 mph N/A   Scattered Clouds
8:55 AM 22.1 °F 10.6 °F 12.4 °F 66% 30.24 in 10.0 mi West 11.5 mph 21.9 mph N/A   Clear
9:15 AM 22.8 °F 9.9 °F 12.9 °F 66% 30.25 in 10.0 mi West 15.0 mph 20.7 mph N/A   Clear
9:35 AM 23.0 °F 11.7 °F 12.2 °F 63% 30.25 in 10.0 mi West 11.5 mph 21.9 mph N/A   Scattered Clouds
9:55 AM 23.0 °F 10.6 °F 13.6 °F 67% 30.26 in 10.0 mi WNW 13.8 mph 20.7 mph N/A   Scattered Clouds
10:15 AM 24.8 °F 13.4 °F 14.0 °F 64% 30.26 in 10.0 mi West 12.7 mph 19.6 mph N/A   Scattered Clouds
10:35 AM 24.8 °F 14.0 °F 15.3 °F 67% 30.27 in 10.0 mi WNW 11.5 mph 17.3 mph N/A   Scattered Clouds
10:55 AM 23.9 °F 14.2 °F 14.5 °F 67% 30.28 in 10.0 mi West 9.2 mph - N/A   Clear
11:15 AM 23.5 °F 12.4 °F 14.5 °F 69% 30.29 in 10.0 mi West 11.5 mph 17.3 mph N/A   Scattered Clouds
11:35 AM 24.1 °F 13.7 °F 14.5 °F 67% 30.30 in 10.0 mi West 10.4 mph 17.3 mph N/A   Scattered Clouds
11:55 AM 24.4 °F 15.6 °F 14.9 °F 67% 30.29 in 10.0 mi West 8.1 mph - N/A   Scattered Clouds
12:15 PM 25.7 °F 17.1 °F 15.8 °F 66% 30.29 in 10.0 mi West 8.1 mph - N/A   Scattered Clouds
12:35 PM 25.9 °F 16.0 °F 15.3 °F 64% 30.29 in 10.0 mi West 10.4 mph - N/A   Scattered Clouds
12:55 PM 27.3 °F 17.7 °F 16.9 °F 65% 30.28 in 10.0 mi West 10.4 mph - N/A   Scattered Clouds
1:15 PM 28.4 °F 20.4 °F 17.6 °F 64% 30.28 in 10.0 mi West 8.1 mph - N/A   Scattered Clouds
1:35 PM 27.5 °F 20.2 °F 15.4 °F 61% 30.27 in 10.0 mi WNW 6.9 mph - N/A   Clear
1:55 PM 28.0 °F 20.0 °F 15.4 °F 59% 30.27 in 10.0 mi West 8.1 mph - N/A   Clear
2:15 PM 28.6 °F 21.5 °F 16.5 °F 61% 30.27 in 10.0 mi West 6.9 mph - N/A   Clear
2:35 PM 29.3 °F 24.3 °F 16.9 °F 60% 30.27 in 10.0 mi West 4.6 mph - N/A   Clear
2:55 PM 29.3 °F 22.3 °F 16.5 °F 59% 30.27 in 10.0 mi West 6.9 mph - N/A   Clear
3:15 PM 28.9 °F 21.1 °F 16.5 °F 60% 30.27 in 10.0 mi WNW 8.1 mph - N/A   Clear
3:35 PM 29.3 °F 21.5 °F 16.7 °F 59% 30.27 in 10.0 mi WNW 8.1 mph - N/A   Clear
3:55 PM 28.4 °F 21.2 °F 17.6 °F 64% 30.27 in 10.0 mi WNW 6.9 mph - N/A   Clear
4:15 PM 29.1 °F 25.4 °F 17.4 °F 62% 30.27 in 10.0 mi WNW 3.5 mph - N/A   Clear
4:35 PM 29.3 °F 23.2 °F 18.5 °F 64% 30.28 in 10.0 mi West 5.8 mph - N/A   Clear
4:55 PM 29.1 °F 23.0 °F 16.5 °F 59% 30.28 in 10.0 mi West 5.8 mph - N/A   Clear
5:15 PM 28.9 °F 25.2 °F 16.9 °F 61% 30.29 in 10.0 mi WSW 3.5 mph - N/A   Clear
5:35 PM 28.0 °F - 18.0 °F 66% 30.29 in 10.0 mi Calm Calm - N/A   Clear
5:55 PM 27.5 °F - 18.9 °F 70% 30.29 in 10.0 mi Calm Calm - N/A   Clear
6:15 PM 27.5 °F - 18.7 °F 69% 30.29 in 10.0 mi Calm Calm - N/A   Clear
6:35 PM 25.7 °F - 18.3 °F 74% 30.29 in 10.0 mi Calm Calm - N/A   Clear
6:55 PM 25.3 °F - 18.1 °F 74% 30.29 in 10.0 mi Calm Calm - N/A   Clear
7:15 PM 25.0 °F - 19.6 °F 80% 30.29 in 10.0 mi Calm Calm - N/A   Clear
7:35 PM 24.8 °F - 19.2 °F 79% 30.29 in 10.0 mi Calm Calm - N/A   Clear
7:55 PM 24.3 °F - 18.9 °F 80% 30.29 in 10.0 mi Calm Calm - N/A   Clear
8:15 PM 24.4 °F 16.5 °F 19.4 °F 81% 30.28 in 10.0 mi ENE 6.9 mph - N/A   Clear
8:35 PM 24.6 °F 16.7 °F 19.2 °F 80% 30.28 in 10.0 mi ENE 6.9 mph - N/A   Clear
8:55 PM 24.6 °F 17.7 °F 19.4 °F 81% 30.28 in 10.0 mi East 5.8 mph - N/A   Clear
9:15 PM 24.6 °F 17.7 °F 19.8 °F 82% 30.29 in 10.0 mi East 5.8 mph - N/A   Clear
9:35 PM 24.4 °F 16.5 °F 20.1 °F 84% 30.30 in 10.0 mi East 6.9 mph - N/A   Clear
9:55 PM 24.4 °F 15.6 °F 20.1 °F 84% 30.29 in 10.0 mi East 8.1 mph - N/A   Clear
10:15 PM 24.4 °F 14.9 °F 19.9 °F 83% 30.28 in 10.0 mi East 9.2 mph - N/A   Clear
10:35 PM 24.8 °F 16.9 °F 19.4 °F 80% 30.27 in 10.0 mi East 6.9 mph - N/A   Clear
10:55 PM 24.4 °F 15.6 °F 19.2 °F 81% 30.27 in 10.0 mi East 8.1 mph - N/A   Clear
11:15 PM 24.4 °F 17.5 °F 18.9 °F 79% 30.28 in 10.0 mi ESE 5.8 mph - N/A   Clear
11:35 PM 24.4 °F 18.6 °F 18.5 °F 78% 30.27 in 10.0 mi ESE 4.6 mph - N/A   Clear
11:55 PM 24.4 °F 15.6 °F 18.3 °F 78% 30.26 in 10.0 mi East 8.1 mph - N/A   Clear